Time,TemperatureF,DewpointF,PressureIn,WindDirection,WindDirectionDegrees,WindSpeedMPH,WindSpeedGustMPH,Humidity,HourlyPrecipIn,Conditions,Clouds,dailyrainin,SoftwareType,DateUTC
2013-07-15 00:10:00,68.7,64.0,29.83,WSW,238,0.0,2.0,84,0.00,,,0.00,weatherlink.com 1.10,2013-07-15 07:10:00,
2013-07-15 00:25:00,68.5,64.0,29.83,WSW,238,0.0,1.0,84,0.00,,,0.00,weatherlink.com 1.10,2013-07-15 07:25:00,
2013-07-15 00:40:00,68.3,63.0,29.82,WSW,238,0.0,0.0,84,0.00,,,0.00,weatherlink.com 1.10,2013-07-15 07:40:00,
2013-07-15 00:55:00,68.1,64.0,29.82,WSW,238,0.0,0.0,85,0.00,,,0.00,weatherlink.com 1.10,2013-07-15 07:55:00,
2013-07-15 01:10:00,68.0,63.0,29.82,WSW,238,0.0,0.0,85,0.00,,,0.00,weatherlink.com 1.10,2013-07-15 08:10:00,
2013-07-15 01:25:00,68.0,64.0,29.82,WSW,238,0.0,0.0,87,0.00,,,0.00,weatherlink.com 1.10,2013-07-15 08:25:00,
2013-07-15 01:40:00,68.1,64.0,29.82,WSW,238,0.0,1.0,86,0.00,,,0.00,weatherlink.com 1.10,2013-07-15 08:40:00,
2013-07-15 01:55:00,67.8,64.0,29.82,WSW,238,0.0,0.0,87,0.00,,,0.00,weatherlink.com 1.10,2013-07-15 08:55:00,
2013-07-15 02:10:00,67.8,64.0,29.81,WSW,238,0.0,0.0,86,0.00,,,0.00,weatherlink.com 1.10,2013-07-15 09:10:00,
2013-07-15 02:25:00,67.8,64.0,29.81,WSW,238,0.0,0.0,87,0.00,,,0.00,weatherlink.com 1.10,2013-07-15 09:25:00,
2013-07-15 02:40:00,67.8,64.0,29.81,WSW,238,0.0,0.0,87,0.00,,,0.00,weatherlink.com 1.10,2013-07-15 09:40:00,
2013-07-15 02:55:00,67.8,64.0,29.81,WSW,238,0.0,1.0,87,0.00,,,0.00,weatherlink.com 1.10,2013-07-15 09:55:00,
2013-07-15 03:10:00,67.5,64.0,29.81,WSW,238,1.0,1.0,87,0.00,,,0.00,weatherlink.com 1.10,2013-07-15 10:10:00,
2013-07-15 03:25:00,67.5,64.0,29.81,WSW,238,0.0,1.0,87,0.00,,,0.00,weatherlink.com 1.10,2013-07-15 10:25:00,
2013-07-15 03:40:00,67.3,63.0,29.80,WSW,238,0.0,0.0,87,0.00,,,0.00,weatherlink.com 1.10,2013-07-15 10:40:00,
2013-07-15 03:55:00,67.2,63.0,29.80,WSW,238,0.0,0.0,87,0.00,,,0.00,weatherlink.com 1.10,2013-07-15 10:55:00,
2013-07-15 04:10:00,67.3,63.0,29.80,WSW,238,0.0,1.0,87,0.00,,,0.00,weatherlink.com 1.10,2013-07-15 11:10:00,
2013-07-15 04:25:00,66.8,63.0,29.80,WSW,238,0.0,0.0,87,0.00,,,0.00,weatherlink.com 1.10,2013-07-15 11:25:00,
2013-07-15 04:41:00,66.6,63.0,29.80,WSW,238,0.0,0.0,88,0.00,,,0.00,weatherlink.com 1.10,2013-07-15 11:41:00,
2013-07-15 04:56:00,66.0,62.0,29.80,WSW,238,0.0,0.0,87,0.00,,,0.00,weatherlink.com 1.10,2013-07-15 11:56:00,
2013-07-15 05:11:00,66.2,63.0,29.80,WSW,238,0.0,0.0,88,0.00,,,0.00,weatherlink.com 1.10,2013-07-15 12:11:00,
2013-07-15 05:26:00,66.0,62.0,29.80,WSW,238,0.0,0.0,88,0.00,,,0.00,weatherlink.com 1.10,2013-07-15 12:26:00,
2013-07-15 05:41:00,65.8,62.0,29.80,WSW,238,0.0,0.0,88,0.00,,,0.00,weatherlink.com 1.10,2013-07-15 12:41:00,
2013-07-15 05:56:00,65.5,62.0,29.81,WSW,238,0.0,0.0,88,0.00,,,0.00,weatherlink.com 1.10,2013-07-15 12:56:00,
2013-07-15 06:11:00,65.2,62.0,29.81,WSW,238,0.0,0.0,88,0.00,,,0.00,weatherlink.com 1.10,2013-07-15 13:11:00,
2013-07-15 06:26:00,66.0,63.0,29.81,WSW,238,0.0,0.0,89,0.00,,,0.00,weatherlink.com 1.10,2013-07-15 13:26:00,
2013-07-15 06:41:00,67.4,64.0,29.82,WSW,238,0.0,0.0,89,0.00,,,0.00,weatherlink.com 1.10,2013-07-15 13:41:00,
2013-07-15 06:56:00,68.0,64.0,29.82,WSW,238,0.0,0.0,88,0.00,,,0.00,weatherlink.com 1.10,2013-07-15 13:56:00,
2013-07-15 07:11:00,69.6,65.0,29.82,WSW,238,0.0,1.0,86,0.00,,,0.00,weatherlink.com 1.10,2013-07-15 14:11:00,
2013-07-15 07:26:00,71.7,66.0,29.83,SW,215,0.0,0.0,82,0.00,,,0.00,weatherlink.com 1.10,2013-07-15 14:26:00,
2013-07-15 07:41:00,73.4,66.0,29.83,SW,233,2.0,2.0,78,0.00,,,0.00,weatherlink.com 1.10,2013-07-15 14:41:00,
2013-07-15 07:56:00,73.1,65.0,29.83,SE,146,3.0,4.0,76,0.00,,,0.00,weatherlink.com 1.10,2013-07-15 14:56:00,
2013-07-15 08:11:00,74.0,65.0,29.83,WSW,240,0.0,3.0,74,0.00,,,0.00,weatherlink.com 1.10,2013-07-15 15:11:00,
2013-07-15 08:26:00,74.5,65.0,29.83,SW,227,0.0,2.0,72,0.00,,,0.00,weatherlink.com 1.10,2013-07-15 15:26:00,
2013-07-15 08:56:00,76.3,65.0,29.83,South,169,2.0,4.0,69,0.00,,,0.00,weatherlink.com 1.10,2013-07-15 15:56:00,
2013-07-15 09:11:00,76.4,66.0,29.83,WSW,250,2.0,4.0,70,0.00,,,0.00,weatherlink.com 1.10,2013-07-15 16:11:00,
2013-07-15 09:26:00,76.1,66.0,29.83,SSW,210,2.0,5.0,70,0.00,,,0.00,weatherlink.com 1.10,2013-07-15 16:26:00,
2013-07-15 09:41:00,77.2,66.0,29.83,SE,143,3.0,6.0,68,0.00,,,0.00,weatherlink.com 1.10,2013-07-15 16:41:00,
2013-07-15 09:56:00,77.6,65.0,29.83,SW,236,1.0,4.0,66,0.00,,,0.00,weatherlink.com 1.10,2013-07-15 16:56:00,
2013-07-15 10:11:00,77.7,65.0,29.83,SE,138,3.0,6.0,65,0.00,,,0.00,weatherlink.com 1.10,2013-07-15 17:11:00,
2013-07-15 10:41:00,79.1,65.0,29.83,SSE,151,1.0,5.0,63,0.00,,,0.00,weatherlink.com 1.10,2013-07-15 17:41:00,
2013-07-15 10:56:00,79.3,65.0,29.83,SW,229,1.0,6.0,61,0.00,,,0.00,weatherlink.com 1.10,2013-07-15 17:56:00,
2013-07-15 11:11:00,79.6,65.0,29.83,SSW,207,2.0,9.0,62,0.00,,,0.00,weatherlink.com 1.10,2013-07-15 18:11:00,
2013-07-15 11:26:00,79.7,65.0,29.83,WSW,245,4.0,8.0,61,0.00,,,0.00,weatherlink.com 1.10,2013-07-15 18:26:00,
2013-07-15 11:41:00,80.2,65.0,29.82,South,181,3.0,7.0,61,0.00,,,0.00,weatherlink.com 1.10,2013-07-15 18:41:00,
2013-07-15 11:56:00,81.0,65.0,29.82,SW,235,1.0,6.0,59,0.00,,,0.00,weatherlink.com 1.10,2013-07-15 18:56:00,
2013-07-15 12:11:00,81.3,64.0,29.82,West,262,5.0,7.0,55,0.00,,,0.00,weatherlink.com 1.10,2013-07-15 19:11:00,
2013-07-15 12:26:00,81.6,62.0,29.82,ESE,118,5.0,8.0,51,0.00,,,0.00,weatherlink.com 1.10,2013-07-15 19:26:00,
2013-07-15 12:41:00,82.6,61.0,29.82,SSE,148,3.0,6.0,49,0.00,,,0.00,weatherlink.com 1.10,2013-07-15 19:41:00,
2013-07-15 12:57:00,82.7,63.0,29.82,SSE,155,4.0,7.0,51,0.00,,,0.00,weatherlink.com 1.10,2013-07-15 19:57:00,
2013-07-15 13:11:00,83.1,64.0,29.82,SE,145,5.0,7.0,52,0.00,,,0.00,weatherlink.com 1.10,2013-07-15 20:11:00,
2013-07-15 13:26:00,83.0,62.0,29.81,SSW,213,4.0,7.0,50,0.00,,,0.00,weatherlink.com 1.10,2013-07-15 20:26:00,
2013-07-15 13:41:00,82.7,62.0,29.81,ESE,121,2.0,8.0,49,0.00,,,0.00,weatherlink.com 1.10,2013-07-15 20:41:00,
2013-07-15 13:56:00,84.4,61.0,29.80,SE,134,4.0,7.0,46,0.00,,,0.00,weatherlink.com 1.10,2013-07-15 20:56:00,
2013-07-15 14:12:00,85.1,61.0,29.80,SE,139,0.0,7.0,44,0.00,,,0.00,weatherlink.com 1.10,2013-07-15 21:12:00,
2013-07-15 14:27:00,85.8,61.0,29.80,South,177,3.0,9.0,43,0.00,,,0.00,weatherlink.com 1.10,2013-07-15 21:27:00,
2013-07-15 14:42:00,86.4,61.0,29.79,SSW,205,6.0,9.0,42,0.00,,,0.00,weatherlink.com 1.10,2013-07-15 21:42:00,
2013-07-15 14:57:00,86.3,61.0,29.79,SW,216,1.0,11.0,42,0.00,,,0.00,weatherlink.com 1.10,2013-07-15 21:57:00,
2013-07-15 15:12:00,86.3,61.0,29.78,South,184,2.0,7.0,42,0.00,,,0.00,weatherlink.com 1.10,2013-07-15 22:12:00,
2013-07-15 15:27:00,87.4,61.0,29.78,WSW,257,4.0,6.0,41,0.00,,,0.00,weatherlink.com 1.10,2013-07-15 22:27:00,
2013-07-15 15:42:00,87.9,59.0,29.77,WSW,245,3.0,8.0,38,0.00,,,0.00,weatherlink.com 1.10,2013-07-15 22:42:00,
2013-07-15 15:57:00,86.6,59.0,29.78,WNW,285,6.0,11.0,39,0.00,,,0.00,weatherlink.com 1.10,2013-07-15 22:57:00,
2013-07-15 16:12:00,84.9,57.0,29.78,West,274,4.0,11.0,39,0.00,,,0.00,weatherlink.com 1.10,2013-07-15 23:12:00,
2013-07-15 16:42:00,83.5,58.0,29.77,WNW,287,5.0,12.0,42,0.00,,,0.00,weatherlink.com 1.10,2013-07-15 23:42:00,
2013-07-15 16:57:00,82.4,59.0,29.77,NW,310,3.0,9.0,45,0.00,,,0.00,weatherlink.com 1.10,2013-07-15 23:57:00,
2013-07-15 17:12:00,82.0,60.0,29.77,NNW,332,6.0,9.0,47,0.00,,,0.00,weatherlink.com 1.10,2013-07-16 00:12:00,
2013-07-15 17:27:00,81.1,59.0,29.77,NW,325,4.0,10.0,47,0.00,,,0.00,weatherlink.com 1.10,2013-07-16 00:27:00,
2013-07-15 17:42:00,80.7,59.0,29.77,WNW,284,5.0,11.0,47,0.00,,,0.00,weatherlink.com 1.10,2013-07-16 00:42:00,
2013-07-15 18:12:00,79.1,55.0,29.76,NW,310,5.0,9.0,43,0.00,,,0.00,weatherlink.com 1.10,2013-07-16 01:12:00,
2013-07-15 18:27:00,78.3,55.0,29.76,West,272,7.0,12.0,44,0.00,,,0.00,weatherlink.com 1.10,2013-07-16 01:27:00,
2013-07-15 18:42:00,77.4,54.0,29.77,West,272,5.0,12.0,45,0.00,,,0.00,weatherlink.com 1.10,2013-07-16 01:42:00,
2013-07-15 19:12:00,77.7,54.0,29.77,West,281,4.0,6.0,44,0.00,,,0.00,weatherlink.com 1.10,2013-07-16 02:12:00,
2013-07-15 19:27:00,76.9,54.0,29.77,NW,313,0.0,6.0,46,0.00,,,0.00,weatherlink.com 1.10,2013-07-16 02:27:00,
2013-07-15 19:42:00,76.2,56.0,29.77,NW,326,3.0,5.0,49,0.00,,,0.00,weatherlink.com 1.10,2013-07-16 02:42:00,
2013-07-15 19:57:00,75.0,56.0,29.78,WNW,301,0.0,4.0,52,0.00,,,0.00,weatherlink.com 1.10,2013-07-16 02:57:00,
2013-07-15 20:12:00,73.8,57.0,29.79,WSW,254,1.0,5.0,55,0.00,,,0.00,weatherlink.com 1.10,2013-07-16 03:12:00,
2013-07-15 20:27:00,72.8,58.0,29.79,West,281,0.0,3.0,60,0.00,,,0.00,weatherlink.com 1.10,2013-07-16 03:27:00,
2013-07-15 21:12:00,70.7,58.0,29.81,West,276,0.0,2.0,65,0.00,,,0.00,weatherlink.com 1.10,2013-07-16 04:12:00,
2013-07-15 21:27:00,70.6,55.0,29.81,NW,318,2.0,5.0,59,0.00,,,0.00,weatherlink.com 1.10,2013-07-16 04:27:00,
2013-07-15 21:42:00,70.4,56.0,29.82,NW,311,0.0,7.0,60,0.00,,,0.00,weatherlink.com 1.10,2013-07-16 04:42:00,
2013-07-15 21:57:00,69.8,57.0,29.82,NW,310,0.0,4.0,63,0.00,,,0.00,weatherlink.com 1.10,2013-07-16 04:57:00,
2013-07-15 22:12:00,69.3,57.0,29.82,NW,319,0.0,4.0,66,0.00,,,0.00,weatherlink.com 1.10,2013-07-16 05:12:00,
2013-07-15 22:27:00,68.9,58.0,29.82,WNW,299,1.0,4.0,68,0.00,,,0.00,weatherlink.com 1.10,2013-07-16 05:27:00,
2013-07-15 22:42:00,68.6,58.0,29.82,WNW,291,0.0,2.0,68,0.00,,,0.00,weatherlink.com 1.10,2013-07-16 05:42:00,
2013-07-15 22:57:00,68.2,57.0,29.83,NW,312,0.0,2.0,68,0.00,,,0.00,weatherlink.com 1.10,2013-07-16 05:57:00,
2013-07-15 23:12:00,67.9,57.0,29.83,NW,312,0.0,1.0,69,0.00,,,0.00,weatherlink.com 1.10,2013-07-16 06:12:00,
2013-07-15 23:27:00,67.0,57.0,29.83,NW,313,0.0,0.0,71,0.00,,,0.00,weatherlink.com 1.10,2013-07-16 06:27:00,
2013-07-15 23:42:00,66.8,57.0,29.83,NW,313,0.0,0.0,72,0.00,,,0.00,weatherlink.com 1.10,2013-07-16 06:42:00,
2013-07-15 23:57:00,66.2,57.0,29.83,NW,312,0.0,0.0,73,0.00,,,0.00,weatherlink.com 1.10,2013-07-16 06:57:00,